Location: Sungai Bunut
(2.6333°N, 113.7333°E)
Time: 20:58:14
(UTC+00:00)

Vanguard 1 - Pass Details

Date: 06 December 2023
Orbit: 653 x 3826 km, 34.3° (Epoch: 28 February)

Event Time Altitude Azimuth Distance (km) Brightness Sun altitude
Rises 12:59:38 0° 310° (NW) 6,894 14.6 -38.5°
Reaches altitude 10° 13:05:39 10° 324° (NW) 6,302 14.2 -39.8°
Enters shadow 13:18:59 25° 3° (N) 5,678 13.6 -42.7°
